Voltar ao catálogo

STARLINK-37256

AtivoComunicaçõesVLEO
NORAD 68569·PAYLOAD·🇺🇸 United States

Lançado Apr 2, 2026 de Cape Canaveral Space Force Station

Loading…

Próximas Passagens (próximas 24 horas)

TLE

AtualizadoSource: CelesTrak SupGP

Época: Sep 14, 2026, 15:59 UTC

1 68569C 26070AD  26257.66645833  .00051258  00000+0  15151-2 0  2574
2 68569  53.1590 200.6351 0001159  80.6340  34.3829 15.34351276    10

Acompanhe STARLINK-37256 em tempo real com AllMySat

Download on the App Store